This is the latest recevied weather packets stored in our database for station/object KI4BIY. If no packets are shown the sender has not sent any weather packets the latest 10 day(s).
| Time | Temp. | Humidity | Pressure | Rain* | Wind** | Luminosity | Snow |
|---|---|---|---|---|---|---|---|
| 1777562760 | 17.22° C | 57% | 1017.1 hPa | 0 mm | - | 591 W/m² | - |
| 1777562459 | 17.22° C | 56% | 1016.7 hPa | 0 mm | - | 619 W/m² | - |
| 1777562155 | 17.22° C | 59% | 1016.7 hPa | 0 mm | - | 659 W/m² | - |
| 1777561853 | 16.67° C | 61% | 1016.6 hPa | 0 mm | - | 640 W/m² | - |
| 1777561550 | 16.67° C | 60% | 1016.4 hPa | 0 mm | - | 439 W/m² | - |
| 1777561245 | 16.67° C | 61% | 1016.6 hPa | 0 mm | - | 498 W/m² | - |
| 1777560944 | 16.67° C | 59% | 1016.8 hPa | 0 mm | - | 490 W/m² | - |
| 1777560641 | 16.11° C | 58% | 1016.6 hPa | 0 mm | - | 564 W/m² | - |
| 1777560339 | 16.67° C | 61% | 1016.8 hPa | 0 mm | - | 382 W/m² | - |
| 1777560037 | 16.67° C | 61% | 1016.9 hPa | 0 mm | - | 389 W/m² | - |
| 1777559732 | 16.67° C | 59% | 1016.8 hPa | 0 mm | - | 399 W/m² | - |
| 1777559430 | 16.67° C | 60% | 1016.9 hPa | 0 mm | - | 533 W/m² | - |
| 1777559127 | 16.11° C | 64% | 1016.9 hPa | 0 mm | - | 504 W/m² | - |
| 1777558827 | 16.11° C | 63% | 1016.9 hPa | 0 mm | - | 490 W/m² | - |
| 1777558522 | 16.67° C | 67% | 1016.8 hPa | 0 mm | - | 475 W/m² | - |
| 1777558219 | 16.11° C | 62% | 1016.7 hPa | 0 mm | - | 375 W/m² | - |
| 1777557915 | 16.11° C | 64% | 1016.6 hPa | 0 mm | - | 413 W/m² | - |
| 1777557612 | 15.56° C | 64% | 1016.8 hPa | 0 mm | - | 351 W/m² | - |
| 1777557308 | 16.11° C | 62% | 1016.7 hPa | 0 mm | - | 308 W/m² | - |
| 1777557005 | 16.11° C | 65% | 1016.8 hPa | 0 mm | - | 334 W/m² | - |
| 1777556700 | 15.56° C | 64% | 1016.8 hPa | 0 mm | - | 324 W/m² | - |
| 1777556397 | 15.56° C | 65% | 1016.7 hPa | 0 mm | - | 303 W/m² | - |
| 1777556092 | 15.56° C | 64% | 1016.8 hPa | 0 mm | - | 255 W/m² | - |
| 1777555791 | 15.56° C | 65% | 1016.7 hPa | 0 mm | - | 255 W/m² | - |
| 1777555488 | 15° C | 68% | 1016.7 hPa | 0 mm | - | 234 W/m² | - |
* Rain latest hour (hover to see other rain measurements)
** Current wind speed in m/s (hover to see current wind gust speed)